Showing default

NEXTSAT-1, 43811

Orbit data source: Space-Track

NEXTSAT-1, 43811 is a payload satellite owned by KAIST (KR) in SSO that was launched on Mon, 03 Dec 2018 UTC via an FALCON 9 launch vehicle from the Air Force Western Test Range (AFWTR). Payload-class satellites include a variety of spacecraft equipped with specific instruments for various scientific and technological missions. These include communications satellites like Starlink; space stations such as the ISS; scientific satellites like the Hubble; Earth observation satellites from companies like Planet Labs, Umbra, and HawkEye 360; GPS; miniature CubeSats for education and research; and military/defense satellites.

Loading next visibility...
Identifier
43811, 2018-099BF
Orbit
SSO
Country
Flag of KRKR / SKOR
Related business
Manufacturer
SatRec Initiative
Mission
Operational Civil Ast/Tech
Bus & Motor
NEXTSAT, Unknown motor
Mass
~100 kg wet, ~100 kg dry
Launch date (UTC)
2018-12-03 (7 years ago)
Launch vehicle
FALCON 9
Launch site
Air Force Western Test Range (AFWTR)
Object type
Payload
Rocket body
Debris
Shape & HBR
Box + Cyl + 1 Pan, 1.0 m
Radar Cross Section
0.908 m², Medium (>0.1 m² and < 1m²)

Expand to show TLE details & history
Last TLE update: 1 day ago

TLE from 1 day ago
0 NEXTSAT-1
1 43811U 18099BF  26126.07138759  .00003441  00000-0  22472-3 0  9993
2 43811  97.4098 170.2627 0013757 118.5469 241.7147 15.08399797405539
Epoch: 2026-05-06T01:42Z
TLE epoch observation values (Epoch: 2026-05-06T01:42:47.887Z)
Latitude
0.00002°
Longitude
-79.37397°
Altitude
548.685 km
Speed
7.585 km/s
True Right ascension
11h 21m 03s
True Declination
0° 00' 00"
Sunlit
Object was in full shadow at epoch
Visualization orbit readout
Latitude
Unknown
Longitude
Unknown
Altitude
Unknown
Speed
Unknown
Apparent Right ascension
Unknown
Apparent Declination
Unknown
Sunlit
N/A
Visualization observer readout
Local Sidereal Time
11:16:02
Azimuth
Unknown
Elevation
Unknown
Doppler factor
Unknown
Orbital elements
Apogee altitude
547.585 km
Perigee altitude
528.556 km
Semi-major axis
6,916.208 km
Eccentricity
0.00138
Inclination
97.4098°
RAAN
170.2627°
Arg. of periapsis
118.5469°
True anomaly
241.57599°
Mean anomaly
241.7147°
Eccentric anomaly
241.64533°
Mean motion
3.77347 °/min
Orbital period
95.4 mins
BSTAR
0.00022472
Loading maneuver chart data...
Computing Atmospheric mass density...
Loading historical data...
Loading historical data...
Loading historical data...
Loading historical data...
Loading historical data...
Loading historical data...
Loading historical data...

Documentation

Showing up to 5 results
|